CamptonHillsWeather.com

Find the Weather for any City, State  
or Zipcode, or Country:

Campton Hills, IL Weather
Local Radar

Local Radar

Graphs, Details
Graphs and Gauges
Detailed Weather
Detailed Reports
Ajax Version (old)
Central Kane Co Summary
Davis Current Weather Graphs
Davis 24 Hour Weather History

CW3778 Data

Weather Underground
Maps
Temperature
Heat Index
Windchill
Humidity
Radar
Dew Point
Wind
Visibility
Visible Satellite
Satellite
Fronts
Snow Depth
Jet Stream
Flight Rules
Forecast Maps
Temperature Forecast
Maximum Temperature Forecast
Minimum Temperature Forecast
Dewpoint Forecast
Prevalent Weather
12Hr Probability of Precip.
Sky Cover
Health Maps
UV Forecast
Air Quality
Peak Air Quality Index
Weather Station
Davis Instruments Vantage Pro
Current Conditions [Select Refresh to Update]

Updated: 4:48pm on 6/29/16

(location)
Currently:
78.0F

Clear
Overcast

High: 80.5 F< 
(3:47pm
Low: 50.6 F 
(6:02am)
Wind: NNW 0 mph
Calm
Gust: 3 mph
Today's High Wind: 7 mph (10:14am)
Humidity: 43%
Pressure: 30.07 in  (Steady
Pressure Rate: -0.017 in/hr
Dew Point: 53.7F
Wind Chill: 78.0 F
Heat Index (feels like): 78.2 F
Comfort Level: Comfortable
Temperature Rate:  -0.32F/hr
 
5 Day Forecast
 
Thu Fri Sat Sun Mon
Clear Clear Clear Clear Clear
Chance T-storms Mostly Cloudy Mostly Cloudy Mostly Cloudy Mostly Cloudy
80 76 77 79 82
58 54 58 61 63

Records and Normals
 
Temperature Forecast Normal Record
High 80 85 91
(2005)
Low 58 62 51
(2007)
 
Links
 
 
Weather Advisories
Full Advisory Text...
Weather Map

Web Cam

Almanac
 
Sunrise:  
5:22am
Moonrise: 
1:45am

Moon Phase:
31%

Sunset: 
8:34pm
Moonset:  
3:15pm
 Star Chart...
Rainfall Totals
Hourly Rain 0.00 in
Daily Rain: 0.00 in
Monthly Rain: 2.69 in
Yearly Rain: 17.74 in
Normal Rain, month to date: 3.14 in
Normal Rain, year to date: 17.42 in
Link to Village of Campton Hills Map

Link to Counties of Illinois Map

Local Weather Exchange Network
Station ID City 
(Click for Map Location)
Neighborhood 
(Click for History)
Last Update (Date & Time) Temperature
 ()
Dew
Point ()
Humidity 
(%)
Wind 
(mph)
from the Wind Gust 
(mph) 
Pressure(in) Hourly
Rain(in)
KILSAINT20 Saint Charles Knoll Creek Drive 06/29 16:38:13 78.8 55.0 44 0 North 0 30.03 0.00
KILSAINT17 Saint Charles Glen Oak Lane 06/29 16:40:51 83.7 57.0 40 0 North 0 30.14 0.00
KILSAINT10 Saint Charles Saint Charles Burr Road 06/29 16:29:13 82.6 56.0 40 2 WSW 0 29.78 0.00
KILSTCHA10 St. Charles Hunt Club 06/29 16:42:33 82.2 20.0 10 2 NW 5 29.62 0.00
KILSAINT8 Saint Charles St. Charles Near West Side 06/29 16:41:17 81.1 54.0 39 2 North 0 29.82 0.00
KILWAYNE4 Wayne Hampton Course 06/29 16:41:59 77.2 57.0 50 0 North 0 30.18 0.00
KILSAINT7 Saint Charles Silver Glen 06/29 16:42:29 77.5 17.0 10 0 WSW 0 29.73 0.00
KILCAMPT3 Campton Hills Campton Hills 06/29 16:42:30 80.3 55.0 42 0 West 0 30.07 0.00
KILSAINT6 Saint Charles 3 Lakes 06/29 16:31:53 79.7 55.0 43 0 NW 0 29.78 0.00
KILSOUTH10 South Elgin East Thornwood Drive 06/29 16:37:42 84.7 55.0 35 0 North 0 29.10 0.00
KILSAINT9 Saint Charles Fox Chase 06/29 16:42:22 77.0 51.0 40 0 West 0 --- 0.00
KILGENEV6 Geneva Dover Ridge 06/29 16:42:27 77.8 52.0 40 4 NNW 4 30.04 0.00
MUR354 Geneva MesoWest 06/29 15:25:00 72.0 0.0 0 5 WNW 7 0.00 0.00
KILELBUR18 Elburn Elodie Drive 06/29 16:41:08 78.8 57.0 47 0 North 0 28.59 0.00
KILGENEV10 Geneva Southampton Drive 06/29 16:42:09 75.9 56.0 50 0 North 0 30.15 0.00
KILGENEV3 Geneva Mill Creek (Blackberry Way) 06/29 16:42:22 80.4 54.0 40 0 WNW 7 30.04 0.00
KILSTCHA1 St Charles CamptonHillsWeather.com Central Kane County 06/29 16:42:33 78.0 54.0 43 1 NNW 3 30.07 0.00
KILGENEV7 Geneva Eldorado Drive 06/29 16:41:50 84.4 59.0 42 0 North 0 30.03 0.00
KILGENEV17 Geneva Geneva 06/29 16:37:47 82.2 57.0 41 0 North 0 29.24 0.00
KILSOUTH5 South Elgin Concord Park 06/29 16:30:40 79.9 56.0 44 3 SW 0 29.83 0.00
KILWAYNE7 Wayne Honey Hill 06/29 16:42:00 80.8 58.0 45 0 North 0 30.20 0.00
KILGENEV2 Geneva Mill Creek 06/29 16:31:24 79.2 53.0 41 1 WSW 3 30.01 0.00
KILBATAV13 Batavia Blackhawk Dr, Batavia 06/29 16:42:25 77.7 47.0 34 0 South 0 30.09 0.00
KILELBUR11 Elburn Cheval de Selle 06/29 16:33:53 79.2 53.0 41 4 SSW 0 30.05 0.00
KILBATAV7 Batavia Charleston Street 06/29 16:42:09 84.2 61.0 45 0 North 0 30.14 0.00
KILBATAV16 Batavia Park Street 06/29 16:42:07 82.4 54.0 37 3 NE 0 30.02 0.00
KILELBUR13 Elburn Hicks Drive 06/29 16:40:31 88.3 61.0 39 0 North 0 29.94 0.00
KILBATAV1 Batavia Tri-Cities on the Fox River 06/29 16:42:21 80.5 48.0 32 0 WNW 0 30.07 0.00
KILELGIN16 Elgin Providence Subdivision 06/29 16:33:23 92.5 56.0 29 4 NNW 0 29.79 0.00
KILELBUR10 Elburn Prairie Valley North 06/29 16:42:14 84.4 56.0 38 3 WSW 3 29.86 0.00
KILELGIN20 Elgin Williamsburg Drive 06/29 16:42:24 78.4 59.0 51 0 North 0 30.06 0.00
KILELBUR15 Elburn East North Street 06/29 16:38:04 94.6 56.0 27 0 North 0 29.91 0.00
KILBATAV10 Batavia Deerpath Road 06/29 16:41:46 78.1 57.0 47 0 North 0 30.08 0.00
KILELBUR9 Elburn Griffith Avenue 06/29 16:41:00 80.8 57.0 43 0 North 0 29.30 0.00
KILELBUR5 Elburn Prairie Highlands 06/29 16:40:15 77.7 55.0 45 0 NW 1 30.05 0.00
KILELBUR17 Elburn Elburn 06/29 16:41:51 78.1 50.0 38 1 NW 2 30.33 0.00
KILWESTC12 West Chicago Woodland Avenue 06/29 16:42:26 74.3 59.0 59 0 North 0 30.15 0.00
KDPA Chicago DuPage Official Station 06/29 15:52:00 76.0 50.0 40 5 Variable --- 30.08 ---
KARR Aurora Official Station 06/29 15:52:00 78.0 51.0 39 5 West --- 30.09 ---
KDKB DeKalb Official Station 06/29 16:35:00 76.0 52.0 42 7 SW --- 30.09 ---
Full Advisory Text
No Warnings

Ambient Weather and Weather Underground
 Never base important decisions on this or any weather information obtained from the Internet
Updated Automatically by Ambient Weather's Virtual Weather Station  V13.01